FENGYUN 1C DEB

Satellite information

Favourite Embed

Satellite Type and Status

DEBRISIN ORBIT

Key statistics

Satellite FENGYUN 1C DEB at a glance.

Uptime

9496

Days in orbit

Revolutions

≈ 14.0

Per day

Orbit

SSO

Sun Synchronous Orbit

Inclination

98.8

Latest

Satellite identification and parameters

Extended collection of information and parameters for FENGYUN 1C DEB.

Object identification

Identified? True

Debris? True

Object name: FENGYUN 1C DEB

International designator: 1999-025DN

Object number (NORAD): 29820

Object ID (CCSDS): 29820

Country: PEOPLES REPUBLIC OF CHINA (PRC)

Current information (Y/N): Y

RCS size: SMALL

Orbital parameters

Period: 102.693 minutes

Inclination: 98.8359 deg

SMA: 7264.211 km

Apoapsis: 939.993 km

Periapsis: 832.16 km

RAAN: 141.2631 deg

Eccentricy: 0.0074222

Argument of periapsis: 127.9558 deg

Mean anomaly: 352.0297 deg

Mean motion: 14.02232638 rev/day

Mean motion (dot): 0.00000608 rev/day2

B* drag term: 0.00041447 1/REarth

Two-line elements (TLE)

Creation date: May 8, 2025, 3:01 a.m.

Reference frame: TEME

Reference center: EARTH

Epoch: May 7, 2025, 2:20 p.m. UTC

TLE line 0: 0 FENGYUN 1C DEB

TLE line 1: 1 29820U 99025DN 25127.59783109 .00000608 00000-0 41447-3 0 9992

TLE line 2: 2 29820 98.8359 141.2631 0074222 127.9558 352.0297 14.02232638934888

Live tracking on map

Real-time ground track for satellite FENGYUN 1C DEB.

In-orbit conjunctions

A list of the most updated potential collisions computed for object FENGYUN 1C DEB.

Target Orbit TCA Probability of collision Miss distance Type
COSMOS 1275 DEB LEO 2025-03-21 04:09:43 0.0001281469 215.0 (m) DEBRIS
DELTA 1 DEB SSO 2025-02-09 08:06:04 0.0001062029 181.0 (m) DEBRIS
PEGASUS DEB LEO 2024-11-15 03:22:49 0.0001023361 215.0 (m) DEBRIS
SL-16 R/B LEO 2024-11-10 10:14:10 0.0002256167 965.0 (m) ROCKET BODY

Associated space launch

Chinese polar orbiting meteorological satellite

FENGYUN 1C DEB was lifted into orbit during the mission ‘Long March 4B | Feng Yun 1C’, on board a Long March 4B space rocket.

The launch took place on May 10, 1999, 1:33 a.m. from Launch Complex 7.

For more information about the launch, click the button.

Launch to space Long March 4B | Feng Yun 1C
Long March 4B | Feng Yun 1C

Agency: N/A

Status: Launch Successful

Launch date: May 10, 1999, 1:33 a.m. UTC

Rocket: Long March 4B

Launch pad: Launch Complex 7

Location: Taiyuan Satellite Launch Center, People's Republic of China

...

Latest news about this satellite

There are no fresh news available about this satellite. Check back as we update our databases every day.


Newsletter sign-up

Weekly statistics, charts and insights to help you stay on top of the space industry.